User: anonymous   Login
Location: Makanda
(37.6176°N, 89.2090°W)
Time: 03:59:04
(UTC+00:00)
Language:

IDEFIX/ARIANE 42P - Orbit

View from above orbital plane
View from above orbital plane
View from above satellite
View from above satellite

Ground track
Ground track

The orbit data is extracted from the following two-line orbital elements,

1 27422U 02021B   19316.87889564 -.00000031 +00000-0 +40068-5 0  9995
2 27422 098.3203 282.3394 0012684 149.2585 210.9343 14.29277924914081
Epoch (UTC): 12 November 2019 21:05:36
Eccentricity: 0.0012684
inclination: 98.3203°
perigee height: 785 km
apogee height: 803 km
right ascension of ascending node: 282.3394°
argument of perigee: 149.2585°
revolutions per day: 14.29277924
mean anomaly at epoch: 210.9343°
orbit number at epoch: 91408

The dashed part of the orbit path shows where the satellite is in the earth's shadow,  

DLR